Location: Palmerston North
(40.3500°S, 175.6170°E)
Time: 06:11:10
(UTC+12:00)

Daily predictions for brighter satellites

Satellite Brightness Start Highest point End
(mag) Time Altitude Azimuth Time Altitude Azimuth Time Altitude Azimuth
CZ-4B DEB 4.2 17:58:09 10° SSE 18:03:46 77° ENE 18:09:16 10° N
COSMO-SKYMED 1 4.1 18:00:21 10° N 18:04:31 43° W 18:08:45 10° SSW
MOS 1-B 4.4 17:59:24 10° SSE 18:05:18 75° ENE 18:11:07 10° N
Atlas Centaur 2 4.1 18:05:11 10° NW 18:07:00 12° NNW 18:08:43 10° N
Okean O Rocket 1.9 18:05:13 10° SSE 18:09:29 46° E 18:13:41 10° N
Cosmos 2082 Rocket 2.8 18:04:00 10° SSW 18:09:43 66° WNW 18:15:24 10° N
CZ-4B R/B 3.3 18:06:23 10° SSE 18:11:44 53° E 18:16:56 10° N
Cosmos 1452 Rocket 3.9 18:09:48 10° N 18:14:45 42° ENE 18:19:46 10° SSE
CENTAUR R/B 3.3 18:09:39 10° SW 18:14:59 47° WNW 18:19:55 10° N
Cosmos 1862 4.1 18:14:31 10° SSE 18:18:09 30° ESE 18:21:44 10° NE
MOS 1 Rocket 3.8 18:14:39 10° NE 18:18:53 35° ESE 18:22:59 10° S
PAYLOAD B 4.3 18:16:28 10° SSE 18:22:11 89° WSW 18:27:48 10° NNW
Cosmos 1633 3.2 18:21:01 10° SSW 18:24:39 62° W 18:28:13 10° N
GPS 2-04 Rocket1 4.4 18:25:20 10° NNW 18:28:20 21° NNE 18:31:00 11° ENE
Envisat 3.0 18:24:38 10° SSE 18:29:49 77° ENE 18:34:56 10° N
CORIOLIS 4.4 18:24:45 10° SSE 18:30:04 51° E 18:35:20 10° N
Cosmos 1441 Rocket 3.5 18:26:27 10° S 18:30:22 47° ESE 18:34:11 10° NNE
Cosmos 1842 Rocket 4.4 18:26:20 10° NNW 18:30:47 57° W 18:35:18 10° S
BREEZE-M DEB (TANK) 3.6 18:32:04 10° W 18:34:01 26° NNW 18:37:01 10° NNE
AQUARIUS 4.1 18:31:47 10° SSE 18:36:21 67° E 18:40:51 10° N
Cosmos 1869 4.4 18:32:35 10° NNW 18:36:22 46° W 18:40:10 10° S
BREEZE M DEB (TANK) 2.4 18:35:33 10° WSW 18:36:58 25° S 18:38:00 18° SE
Lacrosse 5 rocket 3.6 18:34:47 10° WSW 18:37:03 15° SSW 18:39:20 10° S
Cosmos 676 Rocket 4.1 18:33:06 10° SSW 18:38:25 85° WNW 18:43:42 10° NNE
Cosmos 1821 Rocket 4.3 18:33:48 10° S 18:39:35 40° ESE 18:45:16 10° NE
Cosmos 1420 Rocket 4.3 18:36:07 10° NNW 18:41:21 71° WSW 18:46:38 10° SSE
Cosmos 332 Rocket 3.9 18:36:37 10° NNW 18:41:34 87° WSW 18:46:34 10° SSE
Cosmos 1606 3.8 18:38:36 10° NE 18:41:38 23° E 18:43:19 17° SE
Lacrosse 4 Rocket 2.5 18:39:16 10° S 18:43:14 29° SE 18:45:24 20° E
Cosmos 2366 rocket 4.3 18:39:29 10° S 18:45:56 76° W 18:52:15 10° N
Cosmos 1151 Rocket 4.2 18:42:51 10° NE 18:46:10 21° E 18:46:29 21° E
CZ-2C R/B 3.0 18:42:35 10° NE 18:47:49 46° ESE 18:53:12 10° S
Sich 1 3.4 18:43:42 10° S 18:47:55 42° ESE 18:52:07 10° NNE
Aureole 1 Rocket 3.8 18:48:06 10° SSW 18:51:42 51° WNW 18:56:14 10° N
Cosmos 371 Rocket 4.4 18:48:52 10° NW 18:53:33 47° WSW 18:58:18 10° S
Milstar 3 Cent rocket 3.9 18:49:50 10° WNW 18:54:58 24° N 18:58:41 11° NE
Cosmos 2369 Rocket 2.1 18:51:59 10° NNW 18:57:42 77° ENE 19:03:29 10° SSE
IRS-1C Rocket 4.2 18:54:44 10° SSE 18:59:58 52° E 19:05:07 10° N
Cosmos 1943 Rocket 2.6 18:58:53 10° NW 19:04:21 63° WSW 19:09:53 10° SSE
CZ-4 R/B 3.7 19:07:53 11° NNE 19:07:53 11° NNE 19:08:00 10° NNE
Cosmos 1110 Rocket 4.0 19:05:08 10° N 19:10:14 55° ENE 19:14:23 15° SSE
FengYun 1-2 T 4.2 19:05:56 10° SSE 19:11:38 81° ENE 19:17:12 10° NNW
CREW DRAGON DEMO-1 DEB 4.2 19:09:52 10° W 19:12:42 32° SSW 19:13:30 28° S
SL-27 R/B 2.9 19:10:22 10° S 19:13:19 43° SE 19:13:19 43° SE
Cosmos 1741 Rocket 3.9 19:08:48 10° SSW 19:14:06 74° ESE 19:19:20 10° NNE
Cosmos 2263 4.1 19:09:27 10° NNW 19:15:08 76° ENE 19:20:39 11° SSE
CZ-4 R/B 4.4 19:18:42 31° SSE 19:20:33 59° E 19:24:41 10° N
Cosmos 1666 Rocket 3.4 19:22:26 10° S 19:26:54 76° E 19:30:11 17° NNE
IRIDIUM 106 4.3 19:21:56 10° S 19:27:11 60° E 19:32:22 10° NNE
CZ-4C R/B 3.1 19:18:59 10° NW 19:27:16 76° SW 19:33:45 14° SSE
H-2A R/B 4.1 19:24:56 10° WNW 19:30:38 55° NNE 19:41:40 28° ENE
DELTA 2 R/B (1) 3.5 19:25:40 10° W 19:31:16 83° N 19:32:42 52° E
ATLAS 3B R/B 3.9 19:28:16 10° SW 19:34:56 43° WNW 19:41:20 10° N
Cosmos 1939 Rocket 2.8 19:35:32 49° S 19:36:32 82° WSW 19:40:26 10° NNW
COSMOS 2455 4.5 19:31:22 10° WNW 19:36:39 31° SW 19:41:58 10° SSE
Okean-O 2.5 19:39:16 46° SSE 19:40:36 87° ENE 19:45:03 10° NNW
Okean O Rocket 4.5 19:42:39 10° SSW 19:45:27 17° WSW 19:48:13 10° WNW
Cosmos 1933 4.2 19:44:42 10° NNW 19:47:31 42° NNW 19:47:31 42° NNW
Helios 1A Rocket 4.1 19:47:03 10° S 19:51:00 42° WSW 19:54:53 10° NW
Cosmos 1633 Rocket 3.4 19:49:37 10° SSW 19:54:05 66° W 19:54:34 60° NW
CZ-2C R/B 3.9 19:53:38 62° NW 19:54:09 69° WNW 19:58:41 10° SSW
Cosmos 1331 Rocket 4.3 19:49:35 10° NNW 19:54:43 65° WSW 19:57:18 29° S
Cosmos 1833 4.0 19:52:15 10° SSW 19:58:02 84° ESE 19:58:09 83° E
Cosmos 1934 Rocket 4.0 19:53:05 10° S 19:59:24 82° W 20:05:43 10° N
Cosmos 1328 Rocket 4.3 19:58:39 10° NNW 20:02:28 52° WNW 20:02:28 52° WNW
Meteor 1-25 Rocket 4.1 19:58:55 10° S 20:04:38 86° W 20:04:45 85° NW
Cosmos 1339 Rocket 4.3 20:02:32 10° N 20:08:40 90° WSW 20:14:51 10° S
Lacrosse 4 Rocket 3.3 20:17:56 10° SW 20:21:48 30° WNW 20:21:48 30° WNW
BREEZE-M DEB (TANK) 4.5 20:25:12 10° NW 20:39:25 54° NNW 20:39:25 54° NNW
